Weather History for KXNA - April, 2014

Change the Weather History Date:

Saturday, April 26, 2014

  Actual Average Record
Temperature  
Mean Temperature 68 °F -  
Max Temperature 82 °F - - ()
Min Temperature 54 °F - - ()
Cooling Degree Days 2    
Growing Degree Days 18 (Base 50)    
Moisture  
Dew Point 50 °F    
Average Humidity 54    
Maximum Humidity 72    
Minimum Humidity 39    
Precipitation  
Precipitation 0.00 in - - ()
Sea Level Pressure  
Sea Level Pressure 29.78 in    
Wind  
Wind Speed 10 mph (South)    
Max Wind Speed 22 mph    
Max Gust Speed 34 mph    
Visibility 10 miles    
Events Rain , Thunderstorm    
T = Trace of Precipitation, MM = Missing Value Source: NWS Daily Summary

Daily Weather History Graph

Daily Weather History Graph

Search for Another Location

Airport or City:

Trip Planner

Search our weather history database for the weather conditions in past years. The results will help you decide how hot, cold, wet, or windy it might be!

Date:

Astronomy

Apr. 26, 2014 Rise Set
Actual Time 6:29 AM CDT 8:00 PM CDT
Civil Twilight 6:02 AM CDT 8:27 PM CDT
Nautical Twilight 5:30 AM CDT 9:00 PM CDT
Astronomical Twilight 4:55 AM CDT 9:35 PM CDT
Moon 4:49 AM CDT (4/26) 5:34 PM CDT (4/26)
Length of Visible Light 14h 25m
Length of Day
13h 30m
Waning Crescent, 8% of the Moon is Illuminated
Apr 26
Waning Crescent
Apr 29
New
May 6
First Quarter
May 14
Full
May 21
Last Quarter

Hourly Weather History & Observations

Time (CDT) Temp. Heat Index Dew Point Humidity Pressure Visibility Wind Dir Wind Speed Gust Speed Precip Events Conditions
12:53 AM 59.0 °F - 39.9 °F 49% 29.86 in 10.0 mi SSW 8.1 mph - N/A   Clear
1:53 AM 57.9 °F - 39.9 °F 51% 29.85 in 10.0 mi SSW 5.8 mph - N/A   Clear
2:53 AM 57.0 °F - 39.0 °F 51% 29.84 in 10.0 mi South 4.6 mph - N/A   Clear
3:53 AM 54.0 °F - 41.0 °F 62% 29.83 in 10.0 mi South 9.2 mph - N/A   Clear
4:53 AM 55.0 °F - 41.0 °F 59% 29.84 in 10.0 mi SSW 4.6 mph - N/A   Scattered Clouds
5:53 AM 57.0 °F - 42.1 °F 57% 29.83 in 10.0 mi SE 9.2 mph - N/A   Clear
6:53 AM 57.9 °F - 43.0 °F 58% 29.87 in 10.0 mi West 3.5 mph - 0.00 in Rain Light Rain
7:53 AM 57.9 °F - 48.0 °F 70% 29.87 in 10.0 mi ESE 4.6 mph - 0.00 in   Mostly Cloudy
8:10 AM 57.2 °F - 48.2 °F 72% 29.89 in 10.0 mi SE 6.9 mph - N/A Thunderstorm Scattered Clouds
8:25 AM 57.2 °F - 48.2 °F 72% 29.89 in 10.0 mi SE 4.6 mph - N/A   Mostly Cloudy
8:53 AM 59.0 °F - 48.0 °F 67% 29.87 in 10.0 mi SSE 5.8 mph - 0.00 in   Mostly Cloudy
9:53 AM 63.0 °F - 46.9 °F 56% 29.86 in 10.0 mi SSE 6.9 mph - 0.00 in   Partly Cloudy
10:53 AM 71.1 °F - 46.0 °F 41% 29.85 in 10.0 mi South 15.0 mph - N/A   Mostly Cloudy
11:53 AM 75.0 °F - 48.9 °F 40% 29.84 in 10.0 mi South 18.4 mph - N/A   Clear
12:53 PM 75.9 °F - 52.0 °F 43% 29.81 in 10.0 mi South 19.6 mph 24.2 mph N/A   Clear
1:53 PM 79.0 °F - 55.0 °F 44% 29.78 in 10.0 mi South 18.4 mph 25.3 mph N/A   Clear
2:53 PM 80.1 °F 80.2 °F 55.9 °F 43% 29.75 in 10.0 mi South 17.3 mph - N/A   Clear
3:53 PM 81.0 °F 80.5 °F 54.0 °F 39% 29.71 in 10.0 mi South 17.3 mph 25.3 mph N/A   Clear
4:53 PM 81.0 °F 80.5 °F 54.0 °F 39% 29.68 in 10.0 mi South 20.7 mph 29.9 mph N/A   Clear
5:53 PM 79.0 °F - 53.1 °F 40% 29.68 in 10.0 mi South 21.9 mph 34.5 mph N/A   Clear
6:53 PM 78.1 °F - 55.9 °F 46% 29.66 in 10.0 mi SSE 18.4 mph - N/A   Clear
7:53 PM 75.0 °F - 55.9 °F 51% 29.66 in 10.0 mi SSE 19.6 mph - N/A   Clear
8:53 PM 73.9 °F - 57.9 °F 57% 29.65 in 10.0 mi SSE 16.1 mph - N/A   Clear
9:53 PM 73.9 °F - 59.0 °F 59% 29.66 in 10.0 mi SSE 20.7 mph 27.6 mph N/A   Clear
10:53 PM 73.0 °F - 61.0 °F 66% 29.63 in 10.0 mi SSE 19.6 mph 32.2 mph N/A   Clear
11:53 PM 73.0 °F - 62.1 °F 68% 29.62 in 10.0 mi South 19.6 mph 28.8 mph N/A   Clear